Terug naar catalogus

STARLINK-38095

ActiefCommunicatieSSO
NORAD 100179·PAYLOAD·🇺🇸 United States

Gelanceerd Aug 1, 2026 vanaf Vandenberg Space Force Base

Loading…

Volgende Passages (komende 24 uur)

TLE

VersSource: Space-Track

Epoch: Sep 14, 2026, 08:02 UTC

1 A0179U 26175A   26257.33537387  .00142492  00000-0  93993-3 0  9997
2 A0179  97.2830  99.4333 0001039 166.9526 193.1766 15.75200477  8208

Volg STARLINK-38095 in realtime met AllMySat

Download on the App Store